RH
50 55 52 48 44 42 36 44 42 57 45 34 30 28 22 21 23 41 45 36 22 13 11 13 18 25 27 24 22 25 24 23 22 23 22 15 17 18 18 24 24 36 54 60
46 45 42 43 44 47 49 43 42 36 30 25 27 29 33 40 56 46 29 18 16 16 20 25 24 24 31 29 25 28 27 25 24 20 24 18 19 24 23 28 33 53 67 68
44 42 40 37 34 35 32 33 32 30 30 24 29 40 58 65 50 27 26 25 23 19 18 28 28 26 31 31 29 30 31 33 27 29 32 27 28 28 34 32 37 45 69 65
39 37 33 36 33 34 34 33 30 32 30 36 42 71 73 61 36 32 33 31 24 22 25 21 19 18 22 24 28 34 36 42 34 37 38 33 37 37 40 41 36 50 53 55
37 37 42 39 35 31 30 32 31 33 42 56 73 84 71 49 36 33 37 34 28 34 23 25 22 18 20 28 37 40 38 50 51 40 43 40 32 42 49 49 45 56 68 74
40 45 44 38 34 32 32 41 57 65 65 83 91 85 66 45 36 35 34 31 36 36 38 34 28 28 26 34 44 53 54 61 44 37 38 33 33 35 53 57 59 65 65 69
47 44 44 42 38 34 31 41 55 74 90 99 95 81 60 50 38 35 34 33 33 40 40 36 34 31 28 40 56 69 67 52 45 40 36 35 35 35 39 44 46 49 53 65
53 48 47 42 39 34 33 39 55 81 95 100 95 75 64 54 42 38 37 35 34 40 42 40 39 36 31 38 59 63 61 58 46 41 41 39 38 38 40 44 44 44 43 43
64 60 56 51 45 41 33 32 59 78 96 100 99 82 78 74 48 40 38 37 34 40 42 47 46 45 44 51 62 68 70 62 53 50 50 49 47 48 46 46 46 45 44 44
48 58 58 54 52 48 43 31 42 79 89 98 99 99 93 89 64 45 39 38 33 42 42 56 56 52 57 60 67 71 75 71 64 60 60 54 49 50 48 44 41 39 37 37
36 32 35 45 49 48 46 46 37 47 84 91 91 96 98 91 87 56 45 41 31 42 48 53 66 61 59 70 67 75 77 75 73 71 64 58 56 53 49 43 39 38 37 36
39 36 30 27 38 47 48 43 47 40 50 84 93 96 99 97 86 65 47 50 46 41 52 54 73 75 67 70 80 79 79 86 81 75 68 64 61 57 52 47 46 46 45 46
39 43 33 30 33 39 45 48 46 44 45 68 86 98 99 99 89 59 52 48 53 51 53 57 65 78 74 77 76 79 85 89 88 80 74 72 70 61 55 53 52 54 55 55
39 37 37 37 41 42 43 46 45 39 37 63 82 91 96 97 87 64 61 51 58 63 60 59 58 74 84 76 77 75 77 90 95 87 81 78 76 68 62 57 58 59 59 59
36 38 37 34 39 47 47 43 42 37 35 47 68 85 88 91 86 68 65 68 67 70 70 64 60 66 82 79 74 77 80 85 99 95 89 84 78 71 67 64 61 62 64 64
34 36 35 31 30 31 50 54 49 44 35 38 40 38 51 62 75 83 81 76 74 71 71 69 67 68 78 84 79 81 80 93 100 100 96 90 83 79 73 72 71 69 70 67
33 32 35 35 35 35 32 39 48 50 49 44 42 40 39 34 35 40 50 53 50 56 68 74 76 84 92 91 84 88 91 98 98 100 100 95 94 94 91 89 84 78 72 67
40 41 42 47 50 56 62 63 55 43 40 43 45 42 38 37 36 33 30 31 42 62 80 83 87 98 100 97 94 90 100 100 99 97 98 99 98 98 95 94 90 82 72 67
60 57 60 65 64 59 55 51 51 50 37 38 44 43 40 38 36 37 42 44 60 85 92 89 96 100 100 100 100 98 100 94 96 100 100 100 100 98 96 94 90 79 72 67
75 77 75 70 66 62 54 46 42 47 46 40 39 40 42 48 52 57 66 78 87 97 99 100 100 100 100 100 100 100 99 96 98 100 100 100 100 98 97 93 83 76 70 65
87 93 93 88 83 71 60 71 76 66 64 67 60 73 84 90 90 89 92 96 97 100 100 100 100 100 100 100 100 98 98 100 100 100 100 100 99 96 93 85 80 79 72 66
100 100 94 92 91 88 83 92 99 100 100 100 100 100 100 100 100 100 100 100 97 99 98 99 99 100 100 100 100 100 100 100 100 100 100 100 99 94 82 77 80 83 80 75
100 100 96 99 100 100 100 100 100 100 100 100 100 100 100 100 98 98 98 99 100 100 100 100 100 100 100 100 100 100 100 100 100 100 100 99 97 90 86 84 82 83 84 81
100 100 100 100 100 100 100 100 100 100 100 100 100 100 100 100 99 99 100 100 100 100 100 100 100 100 100 100 100 100 100 100 100 100 99 100 97 94 91 88 85 89 90 84
100 100 100 98 98 99 99 99 90 70 65 66 74 67 56 57 73 87 95 99 100 100 100 100 100 100 100 100 100 100 100 100 100 100 100 100 100 98 97 93 88 93 91 84
93 96 95 93 83 69 59 53 48 43 41 40 37 33 30 28 27 29 33 53 77 95 100 100 100 100 100 100 100 100 100 100 100 100 100 100 100 100 91 96 94 98 89 79
91 88 83 77 70 60 51 44 39 33 29 28 26 23 20 19 19 19 20 23 27 36 55 89 100 100 100 100 100 100 100 100 100 100 100 100 100 100 96 91 94 98 92 90
Wind_Speed
20 22 23 22 22 22 19 21 26 27 27 26 24 23 25 24 23 22 21 21 21 21 22 22 21 23 25 26 22 22 23 25 23 25 26 27 28 31 30 33 34 40 38 34
16 18 20 20 19 19 20 22 21 24 23 22 20 24 23 23 22 20 20 18 15 17 19 20 22 24 24 24 25 25 25 25 24 25 25 26 27 30 28 27 28 34 34 29
14 16 17 15 15 16 18 20 24 22 24 19 20 22 23 20 19 18 14 14 16 15 20 20 21 22 23 25 26 26 28 23 22 24 25 23 24 25 27 25 25 29 27 27
16 16 15 14 17 17 19 20 20 20 20 20 20 21 22 20 17 15 15 15 13 15 16 15 17 20 23 25 26 27 27 21 21 22 23 23 24 22 21 20 20 22 23 18
17 18 16 15 15 16 17 18 19 21 20 20 20 21 20 18 17 18 15 13 16 18 21 19 20 23 22 22 24 27 29 24 22 22 22 23 20 20 19 18 21 19 16 15
18 17 17 14 15 15 16 17 17 19 21 20 21 20 18 16 16 17 14 14 16 16 15 17 18 21 22 20 20 21 20 19 18 19 18 16 17 19 17 15 18 18 15 15
20 19 19 17 17 16 17 14 17 18 19 20 21 20 18 16 16 16 16 15 18 15 13 14 17 18 19 19 18 17 16 15 17 14 15 18 19 20 19 18 18 18 16 16
22 22 21 19 18 18 15 17 17 18 19 20 22 21 19 17 17 16 15 16 17 15 13 13 15 17 17 18 19 18 16 15 14 14 17 19 20 21 22 21 20 19 18 17
27 27 26 24 22 20 19 18 17 19 21 18 27 25 21 18 17 17 17 16 16 15 14 13 15 17 17 17 18 18 16 14 14 16 18 19 21 21 21 20 19 19 18 17
23 25 27 27 26 24 22 21 20 20 22 22 20 25 23 20 19 18 18 18 17 15 16 16 17 18 17 18 18 17 16 15 15 18 19 19 21 21 19 19 19 18 17 17
25 24 25 24 25 25 24 24 23 23 23 23 24 23 24 24 22 20 19 18 18 16 18 17 17 18 18 18 18 17 17 17 17 17 18 20 20 19 19 18 18 17 17 18
26 27 25 25 25 26 27 26 25 24 24 24 24 25 25 25 23 22 21 19 19 19 19 20 19 19 19 18 18 18 19 18 18 17 18 19 20 19 19 18 19 20 21 22
23 26 25 23 25 25 27 27 26 25 26 26 26 26 26 25 24 23 23 22 21 20 21 22 21 21 21 21 20 19 20 19 19 19 19 20 20 20 20 20 21 22 24 26
23 23 23 23 23 25 24 27 26 27 28 26 25 27 26 26 24 24 24 24 23 22 22 22 24 24 24 22 23 23 22 22 22 22 22 22 21 21 21 21 22 24 26 29
27 23 20 18 20 23 23 24 26 26 27 27 24 24 25 26 28 27 25 26 25 25 24 24 25 26 25 25 26 28 28 27 25 25 24 23 23 23 23 24 25 27 28 30
30 28 27 25 23 23 24 25 26 26 26 26 26 25 26 26 26 28 29 30 30 30 28 26 26 28 28 26 27 28 31 29 28 28 26 25 24 25 25 26 28 29 31 32
27 28 26 25 26 27 28 27 28 28 27 27 26 25 26 27 28 28 29 29 29 29 28 28 27 25 24 25 27 27 26 24 26 29 29 27 26 27 28 30 31 32 33 34
25 24 22 23 24 26 28 30 30 29 28 28 27 28 28 28 29 30 30 29 30 29 30 29 27 29 30 28 28 27 25 26 28 30 31 28 27 28 29 31 32 33 34 34
20 20 20 21 23 24 26 28 31 32 29 28 29 29 29 30 30 31 31 31 30 29 30 29 28 28 28 28 29 28 27 26 28 30 30 28 27 28 30 31 32 34 34 34
18 19 20 21 22 23 24 24 26 29 29 29 31 30 29 30 30 31 31 30 30 29 29 29 28 26 24 25 26 28 29 27 27 27 27 27 27 29 31 31 33 34 33 34
14 15 17 18 20 20 22 22 24 25 25 24 24 25 25 25 25 27 28 29 29 29 27 28 29 28 29 28 26 28 30 29 28 26 25 26 28 29 29 31 33 33 33 34
15 15 16 18 17 16 17 20 16 16 19 20 21 21 21 21 22 23 23 25 27 28 28 27 28 27 27 26 28 27 27 28 26 24 25 26 28 28 29 32 33 34 35 35
14 17 17 16 16 20 19 21 18 18 18 19 20 21 21 22 22 24 26 27 28 29 28 28 28 29 26 26 27 28 27 26 26 25 26 26 27 29 32 33 33 35 35 35
13 11 14 14 17 18 15 6 11 12 14 14 13 15 16 17 17 18 21 22 26 29 34 32 28 28 27 27 28 28 27 27 26 26 26 28 31 33 33 34 35 36 36 36
12 13 12 11 10 11 12 13 13 14 13 12 11 11 12 12 15 17 17 17 20 21 24 31 32 29 27 28 28 31 27 26 26 28 29 32 35 36 36 37 38 38 36 35
18 18 18 18 18 19 20 22 23 23 23 23 23 23 23 23 22 20 17 18 19 19 19 21 27 31 34 34 35 33 31 31 30 31 33 35 36 36 34 35 38 36 35 35
24 24 23 24 25 26 30 32 33 33 33 31 30 29 28 24 24 24 24 23 23 22 22 23 26 26 27 27 25 28 29 29 29 29 30 31 31 32 35 34 35 34 34 36
Wind_Direction
223 228 231 234 235 231 228 222 222 219 225 225 222 228 230 234 238 237 243 253 262 268 271 269 270 279 280 285 273 276 275 282 283 287 293 298 298 306 319 316 316 317 315 302
232 226 230 230 231 228 222 222 215 223 227 227 220 229 229 228 229 236 245 243 260 278 283 284 282 286 278 282 276 278 283 281 285 289 295 301 304 311 317 322 322 327 325 322
226 227 224 223 224 215 219 218 219 224 230 224 226 230 228 226 234 236 244 256 265 287 285 278 278 279 275 274 282 282 286 282 285 298 297 304 319 319 327 329 336 336 330 327
229 232 231 220 223 221 225 227 231 234 236 237 229 226 224 227 230 233 252 254 268 275 285 280 289 289 287 288 280 279 284 282 290 299 298 302 310 315 327 336 348 350 350 330
229 229 232 233 233 228 228 229 231 236 238 232 228 222 224 230 234 243 253 262 266 275 278 291 300 296 300 294 286 279 281 281 294 296 302 310 320 326 320 324 336 333 349 340
233 233 236 235 238 238 236 236 235 234 231 229 224 222 230 234 239 248 249 258 267 273 289 295 295 298 302 298 295 295 293 288 294 305 312 326 332 336 339 321 333 350 346 356
239 240 242 240 241 241 240 239 241 234 230 225 223 226 233 239 244 252 254 265 270 274 290 294 296 299 301 300 301 295 288 287 293 299 311 323 329 331 332 330 337 341 346 349
243 243 245 249 248 249 248 241 240 235 228 229 227 229 235 242 247 253 260 269 276 279 286 292 294 295 298 301 295 294 291 289 289 301 316 323 327 329 330 331 332 333 333 332
248 249 248 249 251 250 250 244 242 238 231 239 234 230 235 246 251 253 262 277 282 287 286 289 290 292 297 299 296 293 290 286 296 308 316 323 326 325 325 327 328 330 332 332
247 247 247 247 247 248 247 247 245 243 237 238 243 231 235 243 253 254 262 275 281 290 288 283 286 292 295 293 293 292 288 292 303 309 317 321 323 320 322 324 325 326 327 329
250 249 247 246 245 245 244 245 247 248 248 249 251 253 238 244 253 256 262 276 281 284 287 282 280 287 294 289 288 286 287 288 295 307 315 318 320 319 320 321 323 323 322 321
247 252 250 249 246 245 243 243 247 248 249 248 251 250 248 248 252 253 257 266 281 284 286 283 279 281 291 296 292 288 285 285 291 301 309 313 316 314 315 317 319 322 322 321
242 245 247 246 244 244 245 244 245 247 248 251 249 249 248 247 248 250 254 261 274 282 284 282 278 276 285 288 295 294 288 283 287 293 301 307 313 314 313 315 317 318 318 318
232 241 244 241 241 242 243 243 242 245 247 250 251 249 250 251 249 250 255 262 268 276 283 283 278 274 277 282 284 293 289 283 279 286 293 301 308 309 309 311 313 316 318 318
228 236 241 247 248 245 244 246 243 244 247 248 252 252 251 251 250 251 257 262 269 275 281 283 279 274 274 280 283 288 287 280 278 278 284 293 300 305 307 309 311 314 316 317
228 235 241 248 253 254 251 248 250 249 248 246 248 250 252 253 254 255 257 261 266 271 275 274 275 271 271 277 285 289 291 277 269 275 278 284 293 298 304 309 310 312 314 315
227 234 240 245 249 251 251 252 249 250 249 251 252 254 255 255 254 255 257 260 264 267 268 268 267 266 268 273 284 291 290 282 275 275 274 279 291 297 300 303 307 311 314 315
229 238 242 245 248 253 256 255 254 252 249 249 251 251 253 254 255 257 258 260 261 262 263 265 264 262 263 272 279 285 287 285 281 278 279 280 290 298 301 303 306 310 313 315
239 244 247 251 255 259 261 262 259 256 254 249 248 251 252 253 253 255 257 258 259 260 260 262 261 263 267 268 271 278 281 285 286 286 283 278 289 297 300 304 306 310 313 315
249 255 258 259 262 265 268 269 265 261 256 252 247 248 253 255 255 255 255 256 258 258 258 257 256 258 263 268 275 278 281 286 285 279 279 280 290 297 302 305 308 311 314 316
257 260 263 266 266 266 262 267 268 267 260 253 254 258 260 259 258 257 256 255 255 254 254 256 255 256 263 270 275 277 280 282 282 278 276 283 292 298 303 306 308 312 315 317
253 255 260 269 273 279 289 287 277 272 266 257 256 257 259 261 262 258 255 254 255 256 255 254 254 257 261 267 272 277 284 280 277 274 278 287 294 298 303 309 310 311 313 315
246 260 261 260 261 262 269 255 257 266 271 272 268 269 269 270 272 266 259 258 259 253 251 253 249 254 255 263 272 276 281 278 275 277 283 290 295 298 304 310 312 312 311 314
221 238 259 261 251 232 218 211 232 239 249 254 260 265 268 270 270 271 263 263 261 254 246 245 248 249 259 264 268 275 278 278 280 283 286 294 298 299 304 308 309 312 311 312
225 234 241 252 267 277 286 286 286 282 280 280 282 283 285 293 288 284 279 272 268 268 258 249 252 248 248 247 257 266 271 280 285 283 284 290 293 295 302 305 306 311 311 311
254 260 265 267 270 274 277 278 280 280 280 279 280 282 283 282 281 279 285 288 286 280 275 271 263 259 255 253 256 262 267 275 278 277 279 284 287 292 298 303 306 306 308 310
258 262 266 271 276 279 282 284 282 279 277 276 279 282 285 282 276 273 274 275 275 278 282 283 279 272 268 265 263 264 266 269 269 271 275 280 286 291 298 301 308 305 306 310